Vorticity
3 2 3 4 4 4 4 4 4 4 4 5 5 5 5 4 4 4 3 3 2 3 3 3 3 3 3 3 4 2 3 3 3 3 4 2 3 1 2 3 2 2 2 1 5
3 4 4 4 4 4 4 4 4 4 4 3 3 3 3 3 2 2 2 3 3 3 3 3 3 3 3 3 4 3 3 4 3 3 3 3 4 3 4 3 -0 3 3 4 4
2 0 2 3 5 5 4 4 4 5 4 4 4 4 3 3 3 3 3 3 4 4 4 4 4 4 4 3 3 3 2 2 2 3 2 1 3 4 4 7 -1 5 4 4 3
0 -0 -2 0 1 2 4 5 5 5 5 4 4 4 4 3 3 3 4 4 4 4 5 3 3 4 4 5 4 4 3 2 1 2 2 2 2 1 2 1 3 3 3 4 7
2 1 3 1 -1 -0 2 3 2 3 2 2 3 4 4 5 5 4 3 3 3 3 3 3 3 3 3 3 3 4 4 4 4 3 3 3 1 2 1 3 2 2 3 3 4
14 13 10 7 3 1 -1 1 0 0 1 1 1 0 0 -2 1 2 2 1 2 2 2 2 2 2 2 2 1 1 2 3 3 2 1 3 3 6 -1 3 4 4 3 3 4
5 -2 7 4 3 6 6 1 1 3 3 2 1 1 1 2 0 0 2 2 2 2 3 4 4 5 6 6 6 5 6 6 3 4 -0 4 6 3 6 5 5 5 6 5 4
7 13 22 5 6 5 6 6 6 4 5 4 4 3 3 4 4 3 4 5 7 6 7 7 7 6 7 5 4 5 3 4 -1 8 2 5 5 2 6 4 4 6 6 5 6
3 3 1 9 13 5 5 7 6 6 6 5 6 6 6 6 8 8 7 7 6 6 5 4 3 3 2 2 4 4 1 3 5 2 3 6 4 5 5 6 5 4 6 4 5
1 7 4 3 7 10 9 1 5 6 5 4 3 6 6 6 3 2 1 0 1 1 3 5 5 4 9 7 6 6 11 10 10 9 7 6 6 6 6 3 7 7 5 5 5
9 13 12 17 16 14 16 15 7 5 1 1 0 -3 -3 0 -2 1 14 15 16 14 16 18 15 12 12 13 11 10 11 11 11 10 11 11 15 20 19 17 13 7 7 3 5
3 4 10 3 4 8 2 5 12 19 21 21 23 21 20 22 24 19 13 13 11 9 8 8 7 9 10 11 12 13 12 14 12 13 16 16 19 21 21 21 18 12 17 13 6
9 4 4 1 7 10 6 11 6 8 10 14 10 12 13 12 9 7 4 5 9 11 10 11 12 14 15 14 15 15 17 17 16 14 11 13 13 14 18 16 12 19 24 26 28
1 6 12 10 4 8 18 14 7 5 2 6 7 6 7 6 7 8 11 11 13 13 14 10 11 13 15 13 10 9 8 8 8 7 5 5 7 6 3 7 11 7 8 10 14
12 10 19 10 11 17 4 1 9 4 3 6 5 8 10 6 8 14 11 13 13 15 18 15 12 9 7 5 5 4 4 5 6 7 7 8 10 10 10 12 11 10 10 11 12
10 2 7 1 7 1 1 6 2 9 16 9 11 8 10 11 11 13 15 16 12 9 6 6 5 6 6 6 5 7 9 9 9 9 7 12 7 10 9 9 9 9 12 14 12
3 6 15 10 4 2 3 8 4 11 14 13 14 16 15 11 11 13 12 10 7 7 6 4 5 6 7 9 11 9 12 11 12 10 14 2 5 8 8 8 6 9 9 9 12
3 5 11 18 16 13 12 11 13 11 14 17 13 12 10 11 11 9 7 6 5 6 4 4 9 4 5 6 6 6 11 7 8 4 5 4 0 5 6 7 10 10 11 9 7
15 9 8 9 10 8 15 16 10 11 8 6 6 7 9 8 7 7 6 6 5 4 5 9 6 7 8 12 10 11 9 8 6 3 7 3 -6 11 8 6 1 6 9 9 9
6 12 6 8 12 8 7 10 9 7 5 5 7 7 7 6 6 5 5 6 7 5 7 7 10 5 8 8 7 7 6 9 12 11 7 6 4 8 -7 4 9 10 12 10 9
8 10 10 9 5 4 5 4 3 5 8 9 7 6 5 5 5 5 6 3 5 6 6 9 4 9 6 8 8 8 8 8 5 3 1 5 5 1 6 5 4 7 8 7 8
4 4 2 5 3 2 4 3 8 9 9 6 6 6 5 5 5 5 6 7 5 5 6 3 8 9 7 7 6 6 7 8 6 9 5 5 -2 8 -1 2 10 7 3 2 2
-1 -1 6 3 1 4 4 2 8 10 6 6 5 6 5 3 5 4 2 4 4 2 4 3 6 5 2 6 8 6 7 9 6 5 5 3 2 10 8 10 12 12 6 7 5
7 8 1 -1 4 6 5 6 8 8 6 5 5 5 3 4 3 3 3 3 2 2 3 2 2 4 3 5 5 7 9 6 5 4 22 -2 19 12 13 17 7 7 12 10 14
8 9 11 7 7 5 3 8 11 9 7 5 5 4 3 3 3 2 3 3 3 3 4 6 5 3 6 7 6 4 10 15 13 12 7 21 6 24 21 22 25 18 16 16 12
7 4 7 5 4 5 7 12 10 9 9 4 3 4 2 2 2 3 2 3 2 5 4 5 5 4 4 9 9 14 33 30 30 36 36 29 34 31 32 17 20 25 24 22 17
6 5 4 5 8 8 10 10 12 8 10 3 2 4 5 4 3 3 3 4 7 8 8 6 5 6 12 18 48 49 33 43 45 37 28 34 41 33 34 25 18 19 18 15 21
Height
5871 5875 5879 5883 5887 5890 5893 5895 5897 5899 5901 5903 5905 5906 5908 5909 5909 5910 5910 5911 5910 5910 5910 5909 5909 5908 5908 5908 5908 5907 5906 5904 5903 5901 5900 5899 5897 5897 5894 5892 5891 5888 5888 5888 5886
5867 5871 5875 5879 5883 5886 5889 5891 5894 5896 5898 5900 5902 5903 5905 5905 5906 5906 5907 5908 5908 5908 5908 5907 5907 5906 5906 5906 5906 5904 5903 5902 5901 5900 5897 5894 5894 5893 5892 5889 5885 5886 5885 5884 5883
5863 5867 5871 5875 5878 5882 5885 5888 5890 5893 5895 5897 5898 5899 5901 5902 5902 5903 5903 5904 5905 5905 5905 5904 5904 5904 5904 5903 5903 5901 5899 5898 5896 5895 5894 5891 5890 5890 5889 5887 5879 5882 5882 5879 5878
5858 5863 5866 5870 5874 5878 5881 5884 5887 5889 5891 5893 5894 5895 5896 5897 5899 5898 5898 5899 5900 5900 5901 5901 5900 5900 5900 5900 5900 5899 5897 5895 5892 5889 5887 5886 5886 5884 5882 5880 5876 5875 5875 5875 5875
5852 5857 5862 5865 5869 5872 5875 5878 5881 5883 5886 5887 5889 5890 5891 5892 5893 5893 5893 5894 5894 5895 5895 5896 5896 5896 5895 5895 5895 5895 5893 5891 5888 5884 5882 5881 5879 5878 5877 5873 5871 5868 5866 5867 5867
5846 5850 5855 5859 5862 5866 5869 5872 5875 5877 5879 5881 5883 5884 5886 5886 5887 5887 5887 5888 5888 5888 5888 5889 5890 5890 5890 5888 5887 5887 5887 5885 5883 5880 5877 5876 5872 5871 5868 5868 5865 5863 5859 5858 5858
5840 5843 5847 5852 5856 5859 5862 5866 5868 5871 5872 5874 5876 5877 5879 5879 5880 5881 5882 5882 5881 5881 5881 5880 5881 5881 5882 5881 5880 5878 5878 5877 5875 5874 5869 5869 5866 5859 5862 5859 5858 5854 5852 5850 5849
5833 5836 5839 5843 5846 5851 5854 5857 5860 5862 5864 5866 5868 5870 5872 5872 5872 5874 5875 5874 5874 5873 5873 5872 5871 5871 5872 5870 5869 5869 5867 5865 5861 5863 5858 5858 5857 5848 5852 5849 5849 5847 5845 5841 5839
5826 5830 5833 5835 5838 5843 5846 5848 5851 5853 5855 5857 5860 5862 5864 5866 5866 5866 5866 5867 5866 5865 5864 5863 5862 5861 5861 5860 5858 5855 5854 5851 5851 5851 5851 5846 5845 5843 5836 5840 5838 5839 5835 5832 5829
5820 5823 5826 5829 5832 5834 5837 5840 5842 5845 5847 5850 5852 5856 5856 5856 5856 5856 5858 5859 5857 5855 5854 5853 5851 5850 5849 5846 5844 5840 5840 5838 5836 5837 5836 5834 5833 5832 5829 5825 5831 5826 5824 5820 5813
5814 5816 5820 5823 5825 5828 5831 5834 5838 5838 5840 5842 5843 5846 5847 5847 5846 5848 5848 5847 5847 5845 5844 5843 5841 5838 5837 5834 5831 5829 5827 5824 5824 5822 5820 5821 5823 5823 5821 5817 5812 5812 5805 5801 5807
5808 5811 5813 5816 5818 5821 5824 5827 5829 5829 5832 5832 5834 5836 5837 5837 5837 5839 5839 5838 5837 5836 5834 5834 5831 5828 5826 5823 5821 5819 5815 5814 5811 5811 5810 5811 5811 5813 5812 5804 5796 5787 5792 5794 5793
5801 5804 5807 5810 5813 5816 5818 5821 5822 5823 5824 5827 5828 5828 5830 5831 5831 5830 5831 5829 5828 5827 5825 5824 5821 5819 5816 5814 5812 5810 5807 5805 5804 5804 5801 5798 5802 5802 5798 5791 5781 5782 5781 5780 5780
5795 5798 5800 5804 5807 5808 5812 5815 5816 5818 5818 5821 5822 5823 5824 5824 5824 5822 5821 5822 5820 5818 5816 5814 5811 5810 5809 5806 5804 5803 5800 5798 5795 5794 5794 5786 5789 5796 5786 5779 5780 5773 5770 5767 5765
5787 5790 5793 5797 5800 5803 5807 5809 5810 5812 5812 5814 5815 5816 5817 5818 5816 5816 5814 5813 5811 5810 5809 5806 5805 5804 5802 5800 5797 5796 5794 5791 5787 5785 5782 5783 5775 5783 5775 5773 5769 5764 5760 5756 5754
5780 5784 5787 5791 5794 5797 5799 5802 5804 5806 5805 5806 5807 5808 5809 5808 5808 5808 5807 5806 5805 5803 5802 5801 5799 5799 5796 5793 5790 5787 5784 5781 5778 5776 5774 5771 5769 5772 5767 5763 5759 5754 5749 5745 5743
5773 5777 5780 5784 5788 5791 5792 5795 5797 5796 5800 5801 5800 5801 5801 5801 5801 5801 5800 5800 5799 5798 5797 5796 5793 5791 5788 5784 5780 5777 5773 5770 5770 5766 5765 5757 5759 5758 5752 5751 5747 5743 5739 5735 5731
5766 5769 5772 5776 5779 5782 5785 5788 5789 5791 5791 5793 5794 5794 5795 5796 5795 5795 5794 5794 5795 5794 5791 5790 5786 5785 5782 5778 5773 5769 5766 5761 5757 5757 5757 5752 5747 5748 5743 5739 5737 5733 5729 5724 5719
5758 5762 5766 5770 5772 5775 5777 5779 5782 5784 5786 5787 5787 5787 5789 5789 5789 5789 5788 5789 5787 5786 5785 5781 5780 5777 5774 5769 5766 5760 5757 5752 5747 5746 5741 5745 5739 5729 5728 5725 5725 5722 5718 5713 5709
5752 5756 5759 5762 5766 5768 5771 5775 5777 5779 5780 5782 5782 5782 5783 5783 5783 5781 5781 5782 5780 5779 5776 5774 5772 5769 5765 5762 5758 5754 5748 5743 5735 5731 5728 5732 5730 5723 5710 5712 5710 5707 5705 5700 5697
5745 5749 5752 5757 5760 5763 5767 5770 5771 5773 5776 5777 5777 5776 5777 5777 5777 5776 5775 5775 5772 5770 5767 5765 5763 5759 5755 5751 5747 5743 5737 5732 5727 5722 5713 5712 5724 5705 5704 5698 5696 5693 5688 5683 5683
5737 5742 5746 5750 5755 5758 5762 5764 5766 5768 5770 5771 5771 5771 5771 5771 5771 5770 5768 5766 5763 5761 5759 5757 5753 5751 5747 5741 5737 5733 5726 5720 5712 5708 5698 5691 5704 5689 5689 5686 5681 5675 5667 5665 5666
5729 5735 5739 5743 5748 5752 5755 5757 5759 5762 5764 5765 5765 5765 5766 5766 5765 5765 5762 5759 5757 5754 5751 5749 5744 5742 5740 5730 5723 5720 5712 5704 5692 5684 5684 5673 5682 5679 5665 5666 5662 5653 5650 5646 5647
5722 5728 5734 5737 5741 5745 5749 5751 5753 5755 5756 5758 5759 5759 5760 5759 5759 5757 5755 5751 5748 5745 5742 5739 5738 5733 5727 5721 5710 5708 5700 5684 5671 5663 5660 5657 5646 5663 5643 5641 5640 5635 5634 5630 5627
5716 5721 5728 5731 5734 5738 5742 5745 5746 5748 5750 5750 5751 5752 5752 5752 5751 5748 5745 5742 5740 5736 5731 5727 5725 5718 5710 5704 5698 5693 5684 5664 5657 5652 5632 5635 5628 5626 5624 5613 5616 5613 5613 5611 5608
5710 5716 5721 5724 5726 5730 5734 5738 5740 5740 5742 5743 5744 5745 5745 5745 5742 5740 5737 5733 5730 5725 5720 5716 5711 5704 5697 5688 5679 5671 5662 5646 5638 5627 5613 5606 5602 5604 5598 5592 5592 5593 5592 5591 5590
5702 5708 5713 5718 5721 5722 5725 5729 5732 5733 5734 5735 5736 5737 5738 5737 5734 5731 5729 5725 5719 5714 5708 5701 5693 5686 5684 5668 5659 5649 5637 5629 5621 5613 5602 5593 5590 5587 5583 5582 5579 5579 5577 5575 5577